Regional Weather Roundup
Issued by NWS Little Rock, AR

Home | Current Version | Previous Version | Text Only | Print | Product List | Glossary On
Versions: 1 2 3 4 5 6 7 8 9 10 11 12 13 14 15 16 17 18 19 20 21 22 23 24 25 26 27 28 29 30 31 32 33 34 35 36 37 38 39 40 41 42 43 44 45 46 47 48 49 50
000
ASUS44 KLZK 281005
RWRLZK

WEATHER ROUNDUP FOR ARKANSAS
NATIONAL WEATHER SERVICE LITTLE ROCK AR
500 AM CDT WED JUN 28 2017

NOTE: "FAIR" INDICATES FEW OR NO CLOUDS BELOW 12,000 FEET WITH NO
SIGNIFICANT WEATHER AND/OR OBSTRUCTIONS TO VISIBILITY.

ARZ001-003-010-029-281100-
NORTHWEST ARKANSAS

CITY           SKY/WX    TMP DP  RH WIND       PRES   REMARKS
FAYETTEVILLE   CLEAR     69  62  78 S6        29.98F
FORT SMITH     CLEAR     69  65  86 E5        29.97S
HARRISON       CLEAR     64  61  90 SE5       30.01F
BENTONVILLE    CLEAR     66  61  82 S5        29.98F
ROGERS         CLEAR     67  62  84 SE9       29.99F
SILOAM SPGS    CLEAR     70  61  73 S8        29.97F
HIGHFILL       CLEAR     68  63  84 S9        29.98S
$$

ARZ004-005-016-281100-
NORTH CENTRAL ARKANSAS

CITY           SKY/WX    TMP DP  RH WIND       PRES   REMARKS
BATESVILLE     CLEAR     66  61  82 CALM      30.03R
FLIPPIN        CLEAR     63  57  82 CALM      29.99F
MTN HOME       CLEAR     64  62  93 SE3       30.01F
$$

ARZ040-041-281100-
WEST CENTRAL ARKANSAS

CITY           SKY/WX    TMP DP  RH WIND       PRES   REMARKS
MENA           CLOUDY    66  64  94 CALM      30.01F
MOUNT IDA      CLEAR     64  62  93 CALM      29.99S
$$

ARZ009-017-025-026-028-281100-
NORTHEAST ARKANSAS

CITY           SKY/WX    TMP DP  RH WIND       PRES   REMARKS
CORNING        FAIR      68  68 100 SE7       30.04R
JONESBORO      CLEAR     66  65  96 CALM      30.02R
WALNUT RIDGE   CLEAR     68  61  77 SE7       30.02S
BLYTHEVILLE    CLEAR     70  63  78 S7        30.04R
$$

ARZ022-023-033-042-044-281100-
CENTRAL ARKANSAS

CITY           SKY/WX    TMP DP  RH WIND       PRES   REMARKS
LITTLE ROCK    MOCLDY    68  68 100 CALM      30.00S
N LITTLE ROCK    N/A     70  66  85 CALM      29.99S
JACKSONVILLE   MOCLDY    65  65  99 CALM      30.00R
CONWAY           N/A     64  64 100 N6        30.00R
SEARCY         MOCLDY    65  65 100 CALM      30.03R
HOT SPRINGS    CLEAR     68  63  84 E5        30.00S
RUSSELLVILLE   CLEAR     66  64  93 CALM      30.00R
$$

ARZ036-281100-
EAST ARKANSAS

CITY           SKY/WX    TMP DP  RH WIND       PRES   REMARKS
WEST MEMPHIS   CLEAR     67  65  93 SE7       30.01F
$$

ARZ050-053-066-070-073-281100-
SOUTHWEST ARKANSAS

CITY           SKY/WX    TMP DP  RH WIND       PRES   REMARKS
ARKADELPHIA    FAIR      65  64  97 CALM      30.00S
CAMDEN         CLEAR     64  63  94 CALM      30.00R
TEXARKANA      CLOUDY    71  66  84 SE5       30.00R
EL DORADO      CLEAR     66  65  96 CALM      30.00S
DE QUEEN       MOCLDY    69  68  96 NE3       29.97S
$$

ARZ056-057-069-281100-
SOUTHEAST ARKANSAS

CITY           SKY/WX    TMP DP  RH WIND       PRES   REMARKS
PINE BLUFF     CLEAR     67  66  97 CALM      30.00F FOG
STUTTGART      CLEAR     72  57  60 SE7       30.01S
MONTICELLO     CLEAR     69  65  86 S5        30.00F

$$





USA.gov is the U.S. government's official web portal to all federal, state and local government web resources and services.